Date String (YYYY-MM-DD hh:mm:ss) UTC,Instrument flags,Ambient pressure (hPa),Sample flow (lpm),Bypass flow (lpm),Sample temperature (°C),Ambient temperature (°C),ASC tube jacket temperature (°C),LED temperature (°C),Box temperature (°C),Sample RH (%),Span deviation,Mass concentration (μg/m³),Mass concentration (μg/m³),Mass concentration (μg/m³)
DateTimeUTC,F1_M11,P_M11,Q1_M11,Q2_M11,T1_M11,T2_M11,T3_M11,T4_M11,T5_M11,U1_M11,ZSPAN_M11,X2_M11,X0_M11,X1_M11
2021-09-23 17:00:00,,0829.6,5.00,0.00,29.8,26.4,00.0,39.0,31.2,13.2,0000.0,0003.04,0008.46,0001.73
2021-09-23 17:01:00,,0829.6,5.01,0.00,29.7,26.8,00.0,39.0,31.2,13.4,0000.0,0003.05,0007.73,0001.75
2021-09-23 17:02:00,,0829.5,4.99,0.00,29.7,27.2,00.0,38.9,31.3,13.4,0000.0,0002.99,0007.87,0001.75
2021-09-23 17:03:00,,0829.6,5.00,0.00,29.7,27.6,00.0,38.9,31.3,13.6,0000.0,0003.08,0008.89,0001.75
2021-09-23 17:04:00,,0829.5,5.01,0.00,29.7,27.9,00.0,38.9,31.4,13.4,0000.0,0003.11,0008.72,0001.76
2021-09-23 17:05:00,,0829.6,4.99,0.00,29.7,28.2,00.0,38.8,31.5,13.4,0000.0,0003.13,0008.83,0001.76
2021-09-23 17:06:00,,0829.6,5.00,0.00,29.8,28.4,00.0,38.8,31.6,13.7,0000.0,0003.13,0009.41,0001.76
2021-09-23 17:07:00,,0829.6,5.00,0.00,29.8,28.6,00.0,38.9,31.6,13.8,0000.0,0003.10,0009.57,0001.76
2021-09-23 17:08:00,,0829.6,5.01,0.00,29.9,28.7,00.0,38.9,31.7,14.0,0000.0,0003.08,0009.52,0001.76
2021-09-23 17:09:00,,0829.6,5.01,0.00,29.9,28.9,00.0,38.9,31.7,13.9,0000.0,0003.01,0009.40,0001.75
2021-09-23 17:10:00,,0829.5,5.00,0.00,29.9,29.0,00.0,38.9,31.7,13.5,0000.0,0002.97,0009.96,0001.73
2021-09-23 17:11:00,,0829.6,4.99,0.00,30.0,29.1,00.0,38.9,31.8,13.6,0000.0,0003.02,0010.16,0001.74
2021-09-23 17:12:00,,0829.5,5.00,0.00,30.0,29.1,00.0,38.9,31.8,13.6,0000.0,0003.05,0010.65,0001.74
2021-09-23 17:13:00,,0829.5,5.00,0.00,30.0,27.8,00.0,39.0,31.5,13.7,0000.0,0003.06,0010.65,0001.74
2021-09-23 17:14:00,,0829.6,5.00,0.00,29.8,26.3,00.0,38.9,31.1,13.9,0000.0,0003.09,0010.42,0001.74
2021-09-23 17:15:00,,0829.6,5.00,0.00,29.7,26.4,00.0,38.9,31.1,13.5,0000.0,0003.09,0010.94,0001.71
2021-09-23 17:16:00,,0829.6,5.00,0.00,29.7,26.8,00.0,38.9,31.3,14.0,0000.0,0003.10,0011.03,0001.71
2021-09-23 17:17:00,,0829.5,5.00,0.00,29.6,27.2,00.0,38.8,31.3,14.1,0000.0,0003.12,0010.56,0001.72
2021-09-23 17:18:00,,0829.5,5.00,0.00,29.6,27.6,00.0,38.8,31.3,13.8,0000.0,0003.17,0010.48,0001.72
2021-09-23 17:19:00,,0829.5,5.00,0.00,29.7,27.9,00.0,38.8,31.4,13.4,0000.0,0003.15,0010.86,0001.72
2021-09-23 17:20:00,,0829.5,5.00,0.00,29.7,28.2,00.0,38.8,31.4,13.2,0000.0,0003.12,0011.12,0001.70
2021-09-23 17:21:00,,0829.5,4.99,0.00,29.7,28.4,00.0,38.8,31.5,13.5,0000.0,0003.13,0011.62,0001.71
2021-09-23 17:22:00,,0829.5,5.00,0.00,29.8,28.6,00.0,38.8,31.6,13.6,0000.0,0003.11,0012.09,0001.71
2021-09-23 17:23:00,,0829.5,5.01,0.00,29.8,28.7,00.0,38.8,31.6,13.3,0000.0,0003.06,0012.01,0001.69
2021-09-23 17:24:00,,0829.5,4.98,0.00,29.8,28.8,00.0,38.8,31.7,13.1,0000.0,0003.07,0011.71,0001.70
2021-09-23 17:25:00,,0829.5,5.01,0.00,29.9,28.9,00.0,38.8,31.7,12.1,0000.0,0003.01,0010.90,0001.75
2021-09-23 17:26:00,,0829.5,5.00,0.00,29.9,29.0,00.0,38.9,31.8,11.9,0000.0,0003.00,0010.46,0001.82
2021-09-23 17:27:00,,0829.5,4.99,0.00,30.0,29.1,00.0,38.9,31.8,12.0,0000.0,0003.04,0010.22,0001.86
2021-09-23 17:28:00,,0829.5,5.01,0.00,30.0,29.1,00.0,38.9,31.9,12.0,0000.0,0003.08,0010.26,0001.90
2021-09-23 17:29:00,,0829.5,5.00,0.00,30.0,27.8,00.0,38.9,31.5,11.5,0000.0,0003.06,0010.18,0001.96
2021-09-23 17:30:00,,0829.4,4.99,0.00,29.8,26.3,00.0,38.9,31.1,12.5,0000.0,0003.09,0010.25,0002.03
2021-09-23 17:31:00,,0829.4,5.00,0.00,29.7,26.4,00.0,38.9,31.1,13.0,0000.0,0003.16,0010.03,0002.07
2021-09-23 17:32:00,,0829.3,5.00,0.00,29.7,26.8,00.0,38.8,31.2,13.1,0000.0,0003.20,0009.43,0002.10
2021-09-23 17:33:00,,0829.3,5.00,0.00,29.6,27.3,00.0,38.8,31.2,12.9,0000.0,0003.30,0008.64,0002.16
2021-09-23 17:34:00,,0829.2,4.99,0.00,29.7,27.7,00.0,38.8,31.3,13.0,0000.0,0003.33,0008.35,0002.22
2021-09-23 17:35:00,,0829.2,5.01,0.00,29.7,28.0,00.0,38.8,31.4,13.1,0000.0,0003.38,0008.29,0002.26
2021-09-23 17:36:00,,0829.2,5.00,0.00,29.7,28.2,00.0,38.8,31.5,12.7,0000.0,0003.39,0008.65,0002.25
2021-09-23 17:37:00,,0829.3,5.01,0.00,29.7,28.5,00.0,38.8,31.6,12.4,0000.0,0003.37,0008.63,0002.24
2021-09-23 17:38:00,,0829.3,5.00,0.00,29.8,28.6,00.0,38.8,31.6,12.7,0000.0,0003.33,0008.48,0002.23
2021-09-23 17:39:00,,0829.3,5.00,0.00,29.8,28.8,00.0,38.8,31.7,12.7,0000.0,0003.32,0009.55,0002.21
2021-09-23 17:40:00,,0829.3,5.00,0.00,29.9,28.9,00.0,38.8,31.7,12.3,0000.0,0003.28,0009.57,0002.17
2021-09-23 17:41:00,,0829.2,5.00,0.00,29.9,29.0,00.0,38.9,31.8,12.0,0000.0,0003.24,0009.46,0002.13
2021-09-23 17:42:00,,0829.3,5.01,0.00,30.0,28.9,00.0,38.9,31.8,12.1,0000.0,0003.20,0009.14,0002.12
2021-09-23 17:43:00,,0829.2,5.00,0.00,29.9,27.4,00.0,38.9,31.4,12.0,0000.0,0003.14,0009.02,0002.10
2021-09-23 17:44:00,,0829.2,5.00,0.00,29.7,26.1,00.0,38.8,31.0,12.1,0000.0,0003.04,0009.76,0002.07
2021-09-23 17:45:00,,0829.1,4.99,0.00,29.6,26.4,00.0,38.8,31.1,12.1,0000.0,0003.02,0010.33,0002.03
2021-09-23 17:46:00,,0829.1,5.00,0.00,29.6,26.8,00.0,38.8,31.2,12.6,0000.0,0002.98,0010.48,0002.01
2021-09-23 17:47:00,,0829.1,5.00,0.00,29.6,27.3,00.0,38.8,31.2,12.8,0000.0,0003.00,0010.25,0002.03
2021-09-23 17:48:00,,0829.1,5.01,0.00,29.6,27.7,00.0,38.7,31.3,12.6,0000.0,0003.06,0010.65,0002.02
2021-09-23 17:49:00,,0829.1,4.99,0.00,29.6,28.0,00.0,38.7,31.4,12.3,0000.0,0003.12,0011.43,0002.02
2021-09-23 17:50:00,,0829.1,5.00,0.00,29.7,28.2,00.0,38.7,31.4,11.6,0000.0,0003.15,0010.48,0002.06
2021-09-23 17:51:00,,0829.0,5.01,0.00,29.7,28.4,00.0,38.7,31.5,11.4,0000.0,0003.19,0010.42,0002.12
2021-09-23 17:52:00,,0829.1,4.99,0.00,29.7,28.6,00.0,38.7,31.6,11.4,0000.0,0003.26,0010.35,0002.19
2021-09-23 17:53:00,,0829.1,5.01,0.00,29.8,28.8,00.0,38.8,31.6,10.8,0000.0,0003.32,0010.61,0002.26
2021-09-23 17:54:00,,0829.1,5.01,0.00,29.8,28.9,00.0,38.8,31.7,10.6,0000.0,0003.42,0010.78,0002.33
2021-09-23 17:55:00,,0829.1,4.99,0.00,29.9,29.0,00.0,38.8,31.8,10.9,0000.0,0003.44,0009.68,0002.40
2021-09-23 17:56:00,,0829.0,5.02,0.00,29.9,28.8,00.0,38.8,31.7,11.1,0000.0,0003.50,0009.40,0002.51
2021-09-23 17:57:00,,0829.1,4.99,0.00,29.8,27.1,00.0,38.8,31.2,11.2,0000.0,0003.56,0009.87,0002.59
2021-09-23 17:58:00,,0829.1,5.00,0.00,29.6,26.1,00.0,38.8,30.9,10.9,0000.0,0003.59,0010.67,0002.65
2021-09-23 17:59:00,,0829.0,5.01,0.00,29.6,26.4,00.0,38.8,31.0,10.7,0000.0,0003.66,0011.44,0002.72
